Location: Burland Observatory
(39.4088°N, 105.4217°W)
Time: 16:57:50
(UTC-07:00)

Altair - Visible Passes

Search period start: 07 December 2019 00:00
Search period end: 17 December 2019 00:00
Orbit: 1502 x 1682 km, 47.2° (Epoch: 07 December)

Date Brightness Start Highest point End Pass type
(mag) Time Alt. Az. Time Alt. Az. Time Alt. Az.
07 Dec 9.6 01:50:39 13° E 01:50:39 13° E 01:51:31 10° E visible
07 Dec 7.3 03:48:41 77° SE 03:48:41 77° SE 03:57:08 10° ESE visible
07 Dec 8.3 05:46:44 19° W 05:51:42 30° SW 05:59:24 10° S visible
07 Dec 9.0 18:57:52 10° SSE 19:00:57 15° SE 19:00:57 15° SE visible
07 Dec 9.3 20:57:15 10° SW 20:59:01 17° SW 20:59:01 17° SW visible
08 Dec 7.8 03:25:15 54° ESE 03:25:15 54° ESE 03:31:58 10° ESE visible
08 Dec 8.1 05:23:18 26° W 05:26:39 33° SW 05:34:35 10° S visible
08 Dec 9.0 18:33:36 10° SSE 18:37:40 14° SE 18:37:40 14° SE visible
08 Dec 8.8 20:32:11 10° SW 20:35:43 25° SSW 20:35:43 25° SSW visible
09 Dec 8.4 03:01:50 37° ESE 03:01:50 37° ESE 03:06:47 10° ESE visible
09 Dec 7.9 04:59:54 34° WSW 05:01:36 36° SW 05:09:44 10° SSE visible
09 Dec 9.0 18:09:36 10° SE 18:13:12 13° ESE 18:14:21 12° ESE visible
09 Dec 8.4 20:07:09 10° SSW 20:12:25 34° SSW 20:12:25 34° SSW visible
10 Dec 8.9 02:38:28 25° ESE 02:38:28 25° ESE 02:41:36 10° ESE visible
10 Dec 7.9 04:36:32 39° SW 04:36:32 39° SW 04:44:52 10° SSE visible
10 Dec 9.1 17:46:14 10° SE 17:48:11 11° ESE 17:50:06 10° ESE visible
10 Dec 8.0 19:42:08 10° SSW 19:49:05 42° S 19:49:05 42° S visible
10 Dec 9.6 21:46:14 10° WSW 21:47:09 14° WSW 21:47:09 14° WSW visible
11 Dec 9.4 02:15:08 15° ESE 02:15:08 15° ESE 02:16:23 10° ESE visible
11 Dec 8.0 04:13:11 40° SSW 04:13:11 40° SSW 04:19:58 10° SSE visible
11 Dec 7.8 19:17:09 10° SSW 19:25:44 44° SE 19:25:44 44° SE visible
11 Dec 9.1 21:20:58 10° WSW 21:23:47 22° WSW 21:23:47 22° WSW visible
12 Dec 8.3 03:49:52 34° S 03:49:52 34° S 03:55:02 10° SSE visible
12 Dec 7.9 18:52:12 10° SSW 19:01:05 41° SE 19:02:20 40° ESE visible
12 Dec 8.6 20:55:43 10° WSW 21:00:24 33° WSW 21:00:24 33° WSW visible
13 Dec 8.7 03:26:34 25° SSE 03:26:34 25° SSE 03:30:04 10° SSE visible
13 Dec 9.0 05:24:38 11° SW 05:24:38 11° SW 05:26:50 10° SW visible
13 Dec 8.1 18:27:17 10° SSW 18:35:59 38° SE 18:38:56 31° E visible
13 Dec 8.1 20:30:28 10° WSW 20:36:58 48° WSW 20:36:58 48° WSW visible
14 Dec 9.2 03:03:16 17° SSE 03:03:16 17° SSE 03:05:03 10° SSE visible
14 Dec 9.0 05:01:20 12° SW 05:01:20 12° SW 05:03:10 10° SSW visible
14 Dec 8.2 18:02:24 10° SSW 18:10:54 35° SE 18:15:27 23° E visible
14 Dec 7.6 20:05:15 10° WSW 20:13:30 69° WSW 20:13:30 69° WSW visible
14 Dec 9.7 22:11:13 10° W 22:11:33 11° W 22:11:33 11° W visible
15 Dec 9.6 02:39:58 10° SE 02:39:58 10° SE 02:40:03 10° SE visible
15 Dec 9.1 04:38:02 12° SSW 04:38:02 12° SSW 04:39:04 10° SSW visible
15 Dec 8.4 17:37:32 10° S 17:45:49 32° SE 17:51:57 16° E visible
15 Dec 7.3 19:40:02 10° WSW 19:49:49 88° SSE 19:50:00 87° E visible
15 Dec 9.4 21:45:54 10° W 21:48:02 18° W 21:48:02 18° W visible
16 Dec 9.3 04:14:43 10° SSW 04:14:43 10° SSW 04:14:45 10° SSW visible
16 Dec 8.5 17:12:44 10° S 17:20:44 29° SE 17:28:24 10° ENE visible
16 Dec 7.3 19:14:50 10° SW 19:24:38 84° SSE 19:26:27 64° ENE visible
16 Dec 8.9 21:20:35 10° W 21:24:29 27° WNW 21:24:29 27° WNW visible
